Alabaster, AL

1:47 AM CST on December 06, 2019 (GMT -0600)
Shelby County

Weather History for KEET - July, 2019

Change the Weather History Date:

Sunday, July 21, 2019

  Actual Average Record
Temperature  
Mean Temperature 81 °F 81 °F  
Max Temperature 90 °F 91 °F 99 °F (2008)
Min Temperature 72 °F 71 °F 62 °F (1962)
Cooling Degree Days 16 16  
Month to date cooling degree days 360 328  
Year to date cooling degree days 1152 971  
Since 1 June cooling degree days 755 702  
Growing Degree Days 30 (Base 50)    
Moisture  
Dew Point 71 °F    
Average Humidity 80    
Maximum Humidity 100    
Minimum Humidity 59    
Precipitation  
Precipitation 0.00 in 0.14 in 1.34 in (1970)
Month to date precipitation 0.82 3.24  
Year to date precipitation 31.25 31.80  
Sea Level Pressure  
Sea Level Pressure 30.03 in    
Wind  
Wind Speed 4 mph (South)    
Max Wind Speed 15 mph    
Max Gust Speed 20 mph    
Visibility 9 miles    
Events Thunderstorm    
T = Trace of Precipitation, MM = Missing Value Source: NWS Daily Summary

Daily Weather History Graph

Daily Weather History Graph

Search for Another Location

Airport or City:

Astronomy

Jul. 21, 2019 Rise Set
Actual Time 5:52 AM CDT 7:54 PM CDT
Civil Twilight 5:24 AM CDT 8:21 PM CDT
Nautical Twilight 4:51 AM CDT 8:55 PM CDT
Astronomical Twilight 4:14 AM CDT 9:31 PM CDT
Moon 11:01 PM CDT (7/21) 10:01 AM CDT (7/21)
Length of Visible Light 14h 57m
Length of Day
14h 01m
Waning Gibbous, 80% of the Moon is Illuminated
Jul 21
Waning Gibbous
Jul 24
Last Quarter
Jul 31
New
Aug 7
First Quarter
Aug 15
Full

Hourly Weather History & Observations

Time (CDT) Temp. Heat Index Dew Point Humidity Pressure Visibility Wind Dir Wind Speed Gust Speed Precip Events Conditions
12:51 AM 73.4 °F - 71.6 °F 94% 30.03 in 10.0 mi Calm Calm - N/A   Mostly Cloudy
12:53 AM 73.9 °F - 71.1 °F 91% 30.01 in 10.0 mi Calm Calm - N/A   Mostly Cloudy
1:18 AM 73.0 °F - 71.1 °F 93% 30.02 in 10.0 mi Calm Calm - N/A   Scattered Clouds
1:53 AM 73.0 °F - 71.1 °F 93% 30.00 in 10.0 mi SSW 3.5 mph - N/A   Partly Cloudy
2:00 AM 73.0 °F - 71.1 °F 93% 30.02 in 10.0 mi Calm Calm - N/A   Scattered Clouds
2:09 AM 73.0 °F - 72.0 °F 96% 30.02 in 9.0 mi Calm Calm - N/A   Mostly Cloudy
2:40 AM 73.0 °F - 72.0 °F 96% 30.02 in 1.8 mi SSW 3.5 mph - N/A   Overcast
2:53 AM 72.0 °F - 72.0 °F 100% 30.01 in 1.2 mi SSW 3.5 mph - N/A   Overcast
3:07 AM 72.0 °F - 72.0 °F 100% 30.03 in 0.8 mi SSW 3.5 mph - N/A   Mist
3:17 AM 72.0 °F - 72.0 °F 100% 30.03 in 1.5 mi South 3.5 mph - N/A   Overcast
3:40 AM 72.0 °F - 72.0 °F 100% 30.03 in 2.0 mi SSW 3.5 mph - N/A   Overcast
3:53 AM 72.0 °F - 71.1 °F 97% 30.02 in 3.0 mi SW 3.5 mph - N/A   Overcast
4:53 AM 73.0 °F - 71.1 °F 93% 30.04 in 9.0 mi Calm Calm - N/A   Overcast
5:30 AM 73.0 °F - 71.1 °F 93% 30.07 in 10.0 mi Calm Calm - N/A   Overcast
5:44 AM 73.0 °F - 71.1 °F 93% 30.07 in 10.0 mi South 3.5 mph - N/A   Overcast
5:53 AM 73.0 °F - 71.1 °F 93% 30.05 in 9.0 mi South 3.5 mph - N/A   Overcast
6:53 AM 73.9 °F - 71.1 °F 91% 30.07 in 10.0 mi SE 5.8 mph - N/A   Overcast
7:00 AM 73.9 °F - 71.1 °F 91% 30.09 in 10.0 mi SE 4.6 mph - N/A   Overcast
7:08 AM 73.9 °F - 71.1 °F 91% 30.09 in 10.0 mi SSE 3.5 mph - N/A   Overcast
7:28 AM 73.9 °F - 71.1 °F 91% 30.08 in 10.0 mi SSE 3.5 mph - N/A   Overcast
7:53 AM 75.9 °F - 71.1 °F 85% 30.06 in 10.0 mi SSE 5.8 mph - N/A   Overcast
8:53 AM 77.0 °F - 72.0 °F 84% 30.06 in 9.0 mi Variable 3.5 mph - N/A   Overcast
9:32 AM 78.1 °F - 72.0 °F 81% 30.08 in 10.0 mi Variable 3.5 mph - N/A   Mostly Cloudy
9:53 AM 80.1 °F 83.8 °F 72.0 °F 76% 30.06 in 10.0 mi Variable 3.5 mph - N/A   Scattered Clouds
10:53 AM 81.0 °F 85.2 °F 72.0 °F 74% 30.06 in 10.0 mi SSW 8.1 mph - N/A   Mostly Cloudy
11:25 AM 82.0 °F 86.3 °F 71.1 °F 69% 30.07 in 10.0 mi Variable 3.5 mph - N/A   Mostly Cloudy
11:53 AM 82.9 °F 87.0 °F 70.0 °F 65% 30.05 in 10.0 mi WSW 3.5 mph - N/A   Partly Cloudy
12:28 PM 87.1 °F 92.8 °F 71.1 °F 59% 30.07 in 10.0 mi Variable 6.9 mph - N/A Thunderstorm Scattered Clouds
12:53 PM 84.0 °F 88.4 °F 70.0 °F 63% 30.04 in 10.0 mi South 6.9 mph - N/A   Scattered Clouds
1:53 PM 86.0 °F 93.0 °F 73.0 °F 65% 30.01 in 10.0 mi Variable 6.9 mph - N/A   Clear
2:53 PM 88.0 °F 93.8 °F 71.1 °F 57% 29.99 in 10.0 mi Variable 5.8 mph - N/A   Clear
3:09 PM 88.0 °F 93.8 °F 71.1 °F 57% 30.01 in 10.0 mi Variable 6.9 mph - N/A Thunderstorm Clear
3:24 PM 86.0 °F 92.2 °F 72.0 °F 63% 30.01 in 10.0 mi SSE 12.7 mph 18.4 mph N/A   Mostly Cloudy
3:49 PM 84.2 °F 88.4 °F 69.8 °F 62% 30.01 in 10.0 mi SSE 8.1 mph - N/A Thunderstorm Mostly Cloudy
3:53 PM 84.0 °F 89.0 °F 71.1 °F 65% 29.99 in 10.0 mi SE 9.2 mph - N/A Thunderstorm Mostly Cloudy
4:05 PM 81.0 °F 84.9 °F 71.1 °F 72% 30.01 in 10.0 mi SE 10.4 mph - N/A   Scattered Clouds
4:53 PM 84.9 °F 90.7 °F 72.0 °F 65% 29.98 in 10.0 mi SSE 8.1 mph - N/A   Mostly Cloudy
5:07 PM 84.0 °F 89.6 °F 72.0 °F 67% 30.00 in 10.0 mi South 5.8 mph - N/A Thunderstorm Overcast
5:22 PM 84.0 °F 89.6 °F 72.0 °F 67% 30.00 in 10.0 mi Variable 6.9 mph - N/A   Overcast
5:53 PM 84.0 °F 89.0 °F 71.1 °F 65% 29.98 in 10.0 mi SSE 4.6 mph - N/A   Mostly Cloudy
6:53 PM 82.0 °F 86.7 °F 72.0 °F 71% 29.98 in 10.0 mi South 3.5 mph - N/A   Scattered Clouds
7:53 PM 79.0 °F - 72.0 °F 79% 29.99 in 10.0 mi South 3.5 mph - N/A   Partly Cloudy
8:53 PM 79.0 °F - 72.0 °F 79% 29.99 in 10.0 mi South 4.6 mph - N/A   Scattered Clouds
9:53 PM 77.0 °F - 72.0 °F 84% 30.00 in 10.0 mi Calm Calm - N/A   Partly Cloudy
10:53 PM 75.9 °F - 72.0 °F 87% 30.01 in 10.0 mi SSW 3.5 mph - N/A   Clear
11:53 PM 75.9 °F - 72.0 °F 87% 30.00 in 10.0 mi South 3.5 mph - N/A   Clear